Find Starlink 3641

NORAD ID: 51788 Int'l Des: 2022-017 Owner: SPXS Country: US Constellation: starlink operational
LEOCIRCULAR

現在のビュー

3D地球を読み込み中...

About Starlink 3641

Starlink 3641 (NORAD 51788) is a starlink constellation satellite (v1.5) launched Feb 25, 2022 by SPXS of US. It operates in LEO, CIRCULAR orbit with a mass of 297.00 kg.

Starlink 3641について

説明を読み込み中...

次回通過

Passes for default location (London). Set your location on the main map for personalized predictions.

高度履歴

Loading altitude history...

軌道要素

1 51788U 22017W 26171.45027645 .00000671 00000-0 60255-4 0 9997
2 51788 53.1588 247.6944 0001201 83.6407 276.4721 15.08833063239436
Epoch: Jun 20, 2026 • Age: 33 hours

現在のステータス

高度 559.0 km
速度 7.58 km/s
衛星直下点 -53.07°S, 48.16°W
打ち上げ日 Feb 25, 2022
運用期間 4.3 years
タイプ internet

技術仕様

分類 Payload
質量 297.00 kg
乾燥質量 275.00 kg
総質量 297.00 kg
長さ 0.20 m
直径 2.80 m
スパン 9.00 m
形状 Box + pan
製造者 SPXS
バスタイプ Starlink
フェーズステータス In Orbit
所有者/国 SPXS/US

Most Searched